Regional Weather Roundup
Issued by NWS

Home | Current Version | Previous Version | Text Only | Print | Product List | Glossary On
Versions: 1 2 3 4 5 6 7 8 9 10 11 12 13 14 15 16 17 18 19 20 21 22 23 24 25 26 27 28 29 30 31 32 33 34 35 36 37 38 39 40 41 42 43 44 45 46 47 48 49 50
000
ASUS43 KLSX 041559
RWRMO

WEATHER SUMMARY FOR MISSOURI
NATIONAL WEATHER SERVICE SPRINGFIELD MO
1000 AM CST WED MAR 04 2015

NOTE: "FAIR" INDICATES FEW OR NO CLOUDS BELOW 12,000 FEET WITH NO
       SIGNIFICANT WEATHER AND/OR OBSTRUCTIONS TO VISIBILITY.
       CURRENT SKY AND/OR WEATHER CONDITIONS ARE NOT AVAILABLE FOR
       CHILLICOTHE AND FARMINGTON.

MOZ001>031-035>038-043-044-053-054-041700-
...NORTHERN AND WESTERN MISSOURI...

CITY           SKY/WX    TMP DP  RH WIND       PRES   REMARKS
KANSAS CTY INT PTSUNNY   22   7  52 N12       30.31R WCI  10
KANSAS C DTWN  CLOUDY    24   7  48 N13       30.33R WCI  12
LEE`S SUMMIT   CLOUDY    21   9  59 N14       30.30R WCI   8
ST JOSEPH      MOSUNNY   22   7  52 N10       30.36R WCI  11
CHILLICOTHE      N/A     22   3  44 N13G21    30.33R WCI  10

$$
MOZ066>068-077>081-088>096-101>105-041700-
...SOUTHWEST MISSOURI...

CITY           SKY/WX    TMP DP  RH WIND       PRES   REMARKS
SPRINGFIELD    LGT SNOW  24  19  81 N20       30.16R WCI  10
JOPLIN         LGT SNOW  22  18  85 N12G23    30.22R FOG     WCI  10

$$
MOZ032>034-039>042-045>050-055>058-069>072-041700-
...CENTRAL MISSOURI...

CITY           SKY/WX    TMP DP  RH WIND       PRES   REMARKS
COLUMBIA       CLOUDY    20   8  60 N14       30.27R WCI   7
JEFFERSON CITY CLOUDY    21   5  50 N13       30.30R WCI   9
ROLLA          LGT SNOW  18  13  80 N17       30.20R VSB 3/4 WCI   3
SEDALIA        CLOUDY    22  10  60 N16       30.28R WCI   8
WHITEMAN AFB   FLURRIES  21   9  58 N21       30.27R WCI   6
OSAGE BEACH    CLOUDY    21  12  68 N6        30.24S WCI  14

$$
MOZ051-052-059>065-041700-
...EAST CENTRAL MISSOURI...

CITY           SKY/WX    TMP DP  RH WIND       PRES   REMARKS
ST LOUIS INTL  LGT SNOW  21  11  65 N14       30.23R WCI   8
SPIRIT OF STL  LGT SNOW  19  14  81 NW12      30.25R WCI   7
ST CHARLES     CLOUDY    21   7  54 N12       30.23S WCI   9

$$
MOZ072>076-082>087-097>100-106>115-041700-
...SOUTH CENTRAL AND SOUTHEAST MISSOURI...

CITY           SKY/WX    TMP DP  RH WIND       PRES   REMARKS
CAPE GIRARDEAU FRZ RAIN  31  28  89 N23G31    30.12R FOG     WCI  18
FARMINGTON     CLOUDY    25  19  80 N13G20    30.18R WCI  13
POPLAR BLUFF   LGT RAIN  35  31  85 N13       30.08S FOG     WCI  26
WEST PLAINS    FRZ RAIN  28  24  85 N20G28    30.12R FOG     WCI  15

$$


USA.gov is the U.S. government's official web portal to all federal, state and local government web resources and services.